This demonstration page uses our WeatherBlox Daily Observations layout. Learn more.

Left ArrowRight Arrow

Hourly Observations for July 30, 2018

Temp ( °F °C ) Dew Point ( °F °C ) Humidity (%) Winds ( mph kmh ) Pressure ( in mb ) Visibility ( mi km ) Precip ( " mm )
12:53 am 00:53 Clear 57 13.9 43 6.1 60 60 SE 5 7 30.14 1021 10 16 0.00 0.00
1:53 am 01:53 Clear 57 13.9 42 5.6 58 58 SSW 3 6 30.12 1020 10 16 0.00 0.00
2:53 am 02:53 Clear 51 10.6 42 5.6 71 71 WSW 8 13 30.14 1021 10 16 0.00 0.00
3:53 am 03:53 Clear 53 11.7 42 5.6 66 66 SW 7 11 30.14 1021 10 16 0.00 0.00
4:53 am 04:53 Clear 49 9.4 41 5 74 74 SW 5 7 30.13 1020 10 16 0.00 0.00
5:53 am 05:53 Sunny 49 9.4 40 4.4 71 71 SW 5 7 30.13 1020 10 16 0.00 0.00
6:53 am 06:53 Sunny 51 10.6 42 5.6 71 71 Calm 30.14 1021 10 16 0.00 0.00
7:53 am 07:53 Sunny 57 13.9 43 6.1 60 60 WSW 3 6 30.14 1021 10 16 0.00 0.00
8:53 am 08:53 Sunny 68 20 44 6.7 42 42 WSW 7 11 30.11 1020 10 16 0.00 0.00
9:53 am 09:53 Sunny 77 25 42 5.6 29 29 SW 17 28 30.10 1019 10 16 0.00 0.00
10:53 am 10:53 Sunny 80 26.7 43 6.1 27 27 WSW 14 22 30.10 1019 10 16 0.00 0.00
11:53 am 11:53 Sunny 85 29.4 41 5 21 21 SW 13 20 30.09 1019 10 16 0.00 0.00
12:53 pm 12:53 Sunny 88 31.1 39 3.9 18 18 WSW 14 22 30.06 1018 10 16 0.00 0.00
1:53 pm 13:53 Sunny 90 32.2 38 3.3 16 16 SSW 14 22 30.04 1017 10 16 0.00 0.00
2:53 pm 14:53 Sunny 91 32.8 35 1.7 14 14 VRB 3 6 30.02 1017 10 16 0.00 0.00
3:53 pm 15:53 Sunny 94 34.4 36 2.2 13 13 VRB 6 9 30.00 1016 10 16 0.00 0.00
4:53 pm 16:53 Sunny 94 34.4 35 1.7 13 13 NW 5 7 29.99 1016 10 16 0.00 0.00
5:53 pm 17:53 Sunny 94 34.4 35 1.7 13 13 Calm 29.98 1015 10 16 0.00 0.00
6:53 pm 18:53 Sunny 92 33.3 36 2.2 14 14 Calm 29.96 1015 10 16 0.00 0.00
7:53 pm 19:53 Sunny 90 32.2 38 3.3 16 16 SSW 5 7 29.95 1014 10 16 0.00 0.00
8:53 pm 20:53 Sunny 79 26.1 40 4.4 25 25 S 8 13 29.96 1014 10 16 0.00 0.00
9:53 pm 21:53 Clear 73 22.8 39 3.9 29 29 S 10 17 29.96 1014 10 16 0.00 0.00
10:53 pm 22:53 Clear 67 19.4 40 4.4 37 37 WSW 6 9 29.96 1015 10 16 0.00 0.00
11:53 pm 23:53 Clear 67 19.4 41 5 39 39 NW 5 7 29.97 1015 10 16 0.00 0.00

Powered by AerisWeather